World > North America > United States > Utah

Hourly Clawson, UT Regional Weather

Feedback E-mail the Weather

Quick WX

Clawson, UT Weather Maps

°F °C°F °C
Clawson Weather Map
UTC Time: 7/3/2022, 14:51
Your Time:

Clawson, UT Regional Weather

Expires:202207031500;;611497
ASUS45 KSLC 031410
RWRUT 

UTAH REGIONAL WEATHER ROUNDUP
NATIONAL WEATHER SERVICE SALT LAKE CITY UT
800 AM MDT SUN JUL 03 2022


UTZ024>027-106-112>120-031500-

CENTRAL/NORTHEAST UTAH
  
CITY           SKY/WX    TMP DP  RH WIND       PRES   REMARKS
PROVO AIRPORT  MOSUNNY   71  45  39 SE12      29.95R                  
MOAB/CANYONLAN MOSUNNY   77  52  41 SE14      29.98R                  
DELTA            N/A     73  28  19 SE17G23   29.96S                  
MANTI            N/A     57  48  71 CALM      30.05R                  
PRICE          PTSUNNY   72  45  37 S3        30.07R                  
DUCHESNE       MOSUNNY   63  54  72 W7        30.09S                  
VERNAL         MOSUNNY   70  52  52 N3        30.06S                  

$$


SKY/WX - Weather  TMP - Temperature  DP - Dew Point  RH - Humidity
WIND - Wind Direction/Speed PRES - Barometric Pressure VSB - Visibility
WCI - Wind Chill Index E13G22 Wind - East Wind 13 mph/Gusts of 22 mph

Trending Headlines

Clawson Radar Loop



Clawson Quick Facts


National Two Day Weather Forecast


E-mail the Clawson Weather Forecast

Voice your opinion or tell us about page issues...